This is the latest recevied weather packets stored in our database for station/object DK0KTL-4. If no packets are shown the sender has not sent any weather packets the latest 10 day(s).
| Time | Temp. | Humidity | Pressure | Rain* | Wind** | Luminosity | Snow |
|---|---|---|---|---|---|---|---|
| 1777878553 | 16.67° C | 62% | 1012.7 hPa | 0 mm | - | - | - |
| 1777878252 | 16.67° C | 63% | 1012.7 hPa | 0 mm | - | - | - |
| 1777877652 | 16.11° C | 68% | 1012.6 hPa | 0 mm | - | - | - |
| 1777877051 | 15.56° C | 66% | 1012.6 hPa | 0 mm | - | - | - |
| 1777876751 | 15.56° C | 67% | 1012.7 hPa | 0 mm | - | - | - |
| 1777876451 | 15.56° C | 67% | 1012.7 hPa | 0 mm | - | - | - |
| 1777876150 | 15.56° C | 69% | 1012.6 hPa | 0 mm | - | - | - |
| 1777875850 | 15° C | 69% | 1012.6 hPa | 0 mm | - | - | - |
| 1777875550 | 15° C | 70% | 1012.5 hPa | 0 mm | - | - | - |
| 1777875249 | 15° C | 71% | 1012.6 hPa | 0 mm | - | - | - |
| 1777874949 | 15° C | 68% | 1012.5 hPa | 0 mm | - | - | - |
| 1777874348 | 14.44° C | 69% | 1012.5 hPa | 0 mm | - | - | - |
| 1777874048 | 14.44° C | 68% | 1012.5 hPa | 0 mm | - | - | - |
| 1777873748 | 14.44° C | 68% | 1012.5 hPa | 0 mm | - | - | - |
| 1777873148 | 14.44° C | 70% | 1012.4 hPa | 0 mm | - | - | - |
| 1777872547 | 13.89° C | 69% | 1012.3 hPa | 0 mm | - | - | - |
| 1777872247 | 13.89° C | 70% | 1012.3 hPa | 0 mm | - | - | - |
| 1777871946 | 13.89° C | 70% | 1012.1 hPa | 0 mm | - | - | - |
| 1777871646 | 13.89° C | 70% | 1012.1 hPa | 0 mm | - | - | - |
| 1777871346 | 13.33° C | 70% | 1011.9 hPa | 0 mm | - | - | - |
| 1777871045 | 13.33° C | 70% | 1012 hPa | 0 mm | - | - | - |
| 1777870445 | 13.33° C | 72% | 1012 hPa | 0 mm | - | - | - |
| 1777869544 | 12.78° C | 72% | 1011.8 hPa | 0 mm | - | - | - |
| 1777868643 | 12.78° C | 74% | 1011.7 hPa | 0 mm | - | - | - |
| 1777867742 | 12.78° C | 73% | 1011.7 hPa | 0 mm | - | - | - |
* Rain latest hour (hover to see other rain measurements)
** Current wind speed in m/s (hover to see current wind gust speed)